Location: Belfast
(54.5830°N, 5.9330°W)
Time: 04:12:47
(UTC+00:00)

N. Korean satellite - Visible Passes

Search period start: 22 January 2018 00:00
Search period end: 01 February 2018 00:00
Orbit: 458 x 515 km, 97.2° (Epoch: 21 January)

Date Brightness Start Highest point End Pass type
(mag) Time Alt. Az. Time Alt. Az. Time Alt. Az.
22 Jan 9.7 06:15:43 10° NE 06:18:00 17° E 06:20:17 10° SE visible
22 Jan 7.7 18:31:06 10° S 18:34:32 45° W 18:37:57 10° NNW visible
23 Jan 6.5 07:24:41 10° NNE 07:28:10 89° ESE 07:31:38 10° SSW visible
23 Jan 6.6 18:07:15 10° SSE 18:10:48 82° WSW 18:14:20 10° NNW visible
24 Jan 7.6 07:01:05 10° NNE 07:04:27 48° E 07:07:49 10° S visible
24 Jan 6.6 17:43:41 10° SSE 17:47:09 55° ENE 17:50:36 10° N visible
24 Jan 9.7 19:18:44 10° SW 19:20:59 16° W 19:23:13 10° NW visible
25 Jan 8.8 06:37:38 10° NE 06:40:39 27° E 06:43:40 10° SSE visible
25 Jan 8.9 18:54:05 10° SSW 18:57:07 26° W 19:00:08 10° NW visible
26 Jan 9.8 06:14:31 10° NE 06:16:47 16° E 06:19:02 10° SE visible
26 Jan 7.7 18:29:55 10° S 18:33:19 45° W 18:36:42 10° NNW visible
27 Jan 6.5 07:23:27 10° NNE 07:26:57 87° ESE 07:30:25 10° SSW visible
27 Jan 6.5 18:06:04 10° SSE 18:09:35 84° WSW 18:13:05 10° NNW visible
28 Jan 7.7 06:59:50 10° NNE 07:03:12 47° E 07:06:35 10° S visible
28 Jan 6.6 17:42:30 10° SSE 17:45:55 53° ENE 17:49:20 10° N visible
28 Jan 9.7 19:17:31 10° SW 19:19:45 16° W 19:21:59 10° NW visible
29 Jan 8.9 06:36:24 10° NE 06:39:24 27° E 06:42:24 10° SSE visible
29 Jan 8.9 18:52:51 10° SSW 18:55:52 26° W 18:58:52 10° NW visible
30 Jan 9.8 06:13:16 10° NE 06:15:31 16° E 06:17:46 10° SE visible
30 Jan 7.7 18:28:40 10° S 18:32:03 46° W 18:35:26 10° NNW visible
31 Jan 6.6 07:22:10 10° NNE 07:25:40 85° ESE 07:29:10 10° SSW visible
31 Jan 6.5 18:04:49 10° SSE 18:08:19 86° WSW 18:11:48 10° NNW visible
